Content
SEND FEEDBACK

Daily
Averages
Monthly
Summary
France

RENNES, FRANCE


Home > Europe > France
Elevation: 121 feet     Latitude: 48 04N     Longitude: 001 43W

WEATHER
 
SELECT A DAY
Number of Records: 242,096;   Date Range: 7/1/96 - 9/29/14
 
SHARE

PRINT THIS DATA

[ ← Previous Day ]
WEATHER ALMANAC - OCTOBER 26, 2013
[ Next Day → ]
[ °C ]   °F
Weather ElementAverageHighLow
Temperature60.3 °F68 °F (2:30 pm)55.4 °F (4:00 am)
Dewpoint56.6 °F59 °F (12:30 am)53.6 °F (6:30 am)
Humidity87.8 %100 % (12:30 am)62 % (2:00 pm)
Barometer29.86 in29.89 in (9:00 am)29.80 in (10:30 pm)
Wind Speed11.1 mph19.6 mph (3:30 pm)
Wind Gust26.5 mph (3:00 pm)
Weather ElementAverage
Visibility5.9 mi
Wind DirectionSSW (197.8 °)

Weather ElementTotal
Precipitation---
Heating Degree Days3.3 (Base 65)
Growing Degree Days11.7 (Base 50)
Averaged from 51 records on October 26, 2013
WEATHER CONDITIONS BREAKOUT
WIND DIRECTION BREAKOUT
Weather ElementAverageHighLow
Temperature60.3 °F68 °F (2:30 pm)55.4 °F (4:00 am)
Dewpoint56.6 °F59 °F (12:30 am)53.6 °F (6:30 am)
Humidity87.8 %100 % (12:30 am)62 % (2:00 pm)
Barometer29.86 in29.89 in (9:00 am)29.80 in (10:30 pm)
Wind Speed11.1 mph19.6 mph (3:30 pm)
Wind Gust26.5 mph (3:00 pm)
Weather ElementAverage
Visibility5.9 mi
Wind DirectionSSW (197.8 °)

Weather ElementTotal
Precipitation---
Heating Degree Days3.3 (Base 65)
Growing Degree Days11.7 (Base 50)
Averaged from 51 records on October 26, 2013
WEATHER CONDITIONS BREAKOUT
WIND DIRECTION BREAKOUT
WEATHER BY HOUR - OCTOBER 26, 2013
[ °C ]   °F
Local TimeTemperatureDewpointHumidityBarometerVisibilityWind DirectionWind SpeedGust SpeedPrecipitationEventsConditions
12:30 AM59.0 °F59.0 °F100 %29.86 in4.3 miSouth (180°)9.2 mph
1:00 AM59.0 °F59.0 °F100 %29.86 in3.7 miSouth (190°)6.9 mph
1:30 AM59.0 °F57.2 °F94 %29.86 in4.3 miSouth (170°)9.2 mph
2:00 AM58.0 °F57.0 °F95 %29.86 in4.0 miSouth (170°)8.1 mphClear
2:00 AM59.0 °F57.2 °F94 %29.86 in4.3 miSouth (170°)8.1 mph
2:30 AM57.2 °F57.2 °F100 %29.86 in4.3 miSouth (190°)6.9 mph
3:00 AM57.2 °F55.4 °F94 %29.86 in3.1 miSouth (190°)4.6 mphPartly Cloudy
3:30 AM57.2 °F55.4 °F94 %29.83 in3.1 miSouth (190°)6.9 mphMist
4:00 AM55.4 °F55.4 °F100 %29.86 in2.5 miSouth (170°)5.8 mphScattered Clouds
4:30 AM55.4 °F55.4 °F100 %29.86 inSouth (180°)5.8 mphPartly Cloudy
5:00 AM57.2 °F55.4 °F94 %29.86 in2.2 miSouth (190°)8.1 mphOvercast
5:30 AM55.4 °F55.4 °F100 %29.86 inSouth (180°)5.8 mphOvercast
6:00 AM55.4 °F55.4 °F100 %29.86 inSouth (180°)5.8 mphOvercast
6:30 AM55.4 °F53.6 °F94 %29.86 in3.1 miSouth (180°)8.1 mphMist
7:00 AM55.4 °F55.4 °F100 %29.86 in5.6 miSouth (190°)9.2 mph
7:30 AM55.4 °F55.4 °F100 %29.86 in6.2 miSouth (180°)9.2 mph
8:00 AM56.0 °F55.0 °F97 %29.88 in6.0 miSouth (190°)10.4 mphClear
8:00 AM57.2 °F55.4 °F94 %29.86 in5.6 miSouth (180°)10.4 mph
8:30 AM55.4 °F55.4 °F100 %29.86 in4.3 miSouth (190°)8.1 mph
9:00 AM55.4 °F55.4 °F100 %29.89 in5.0 miSouth (190°)6.9 mph
9:30 AM57.2 °F57.2 °F100 %29.89 in6.2 miSSW (200°)8.1 mph
10:00 AM59.0 °F57.2 °F94 %29.89 in6.2 miSSW (200°)5.8 mph
10:30 AM59.0 °F57.2 °F94 %29.89 in6.2 miSouth (190°)6.9 mphMostly Cloudy
11:00 AM62.6 °F59.0 °F88 %29.89 in6.2 miSSW (200°)10.4 mph
11:30 AM64.4 °F59.0 °F83 %29.89 in6.2 miSW (220°)13.8 mphMostly Cloudy
12:00 PM64.4 °F59.0 °F83 %29.89 in6.2 miSW (220°)13.8 mphMostly Cloudy
12:30 PM64.4 °F59.0 °F83 %29.89 in6.2 miSSW (200°)11.5 mphOvercast
1:00 PM62.6 °F59.0 °F88 %29.89 in6.2 miSW (220°)9.2 mphOvercast
1:30 PM66.2 °F59.0 °F78 %29.89 in6.2 miSSW (210°)13.8 mphPartly Cloudy
2:00 PM65.0 °F55.0 °F62 %29.88 in22.0 miSW (220°)17.3 mphClear
2:00 PM66.2 °F55.4 °F68 %29.89 in6.2 miSSW (210°)17.3 mphMostly Cloudy
2:30 PM68.0 °F57.2 °F68 %29.86 in6.2 miSSW (210°)16.1 mphOvercast
3:00 PM66.2 °F57.2 °F73 %29.86 in6.2 miSSW (210°)13.8 mph26.5 mphMostly Cloudy
3:30 PM66.2 °F55.4 °F68 %29.86 in6.2 miSSW (210°)19.6 mphMostly Cloudy
4:00 PM66.2 °F55.4 °F68 %29.86 in6.2 miSSW (210°)16.1 mphMostly Cloudy
4:30 PM64.4 °F55.4 °F73 %29.86 in6.2 miSSW (210°)13.8 mphMostly Cloudy
5:00 PM62.6 °F57.2 °F82 %29.86 in6.2 miSW (220°)10.4 mphMostly Cloudy
5:30 PM62.6 °F57.2 °F82 %29.83 in6.2 miWSW (240°)12.7 mphOvercast
6:00 PM62.6 °F57.2 °F82 %29.83 in6.2 miSSW (210°)11.5 mphMostly Cloudy
6:30 PM62.6 °F57.2 °F82 %29.86 in6.2 miSSW (210°)13.8 mphMostly Cloudy
7:00 PM60.8 °F55.4 °F82 %29.86 in6.2 miSSW (200°)13.8 mphMostly Cloudy
7:30 PM60.8 °F57.2 °F88 %29.86 in6.2 miSSW (210°)15.0 mphRainLight Rain
8:00 PM61.0 °F56.0 °F80 %29.86 in9.0 miSSW (210°)15.0 mphRainLight Rain
8:00 PM60.8 °F57.2 °F88 %29.86 in6.2 miSSW (210°)15.0 mphRainLight Rain
8:30 PM60.8 °F55.4 °F82 %29.83 in6.2 miSSW (200°)12.7 mphOvercast
9:00 PM60.8 °F55.4 °F82 %29.83 in6.2 miSSW (200°)13.8 mphMostly Cloudy
9:30 PM60.8 °F57.2 °F88 %29.83 in6.2 miSouth (190°)13.8 mphRainLight Rain
10:00 PM60.8 °F57.2 °F88 %29.83 in6.2 miSSW (200°)11.5 mphMostly Cloudy
10:30 PM60.8 °F57.2 °F88 %29.80 in6.2 miSSW (200°)13.8 mphMostly Cloudy
11:00 PM60.8 °F55.4 °F82 %29.80 in6.2 miSSW (200°)15.0 mphOvercast
11:30 PM60.8 °F55.4 °F82 %29.80 in6.2 miSSW (200°)18.4 mphOvercast
Hourly data recorded from LFRN, located miles away from Rennes, France







STORIES FROM OUR PARTNERS